St. Johns, AZ

8:56 AM MST on December 06, 2019 (GMT -0700)
Saint Johns Industrial

Weather History for KSJN - August, 2019

Change the Weather History Date:

Friday, August 30, 2019

  Actual Average (KLSB) Record (KLSB)
Temperature  
Mean Temperature 70 °F -  
Max Temperature 91 °F 92 °F 95 °F (2014)
Min Temperature 50 °F 59 °F 60 °F (2014)
Cooling Degree Days 6    
Growing Degree Days 20 (Base 50)    
Moisture  
Dew Point 44 °F    
Average Humidity 37    
Maximum Humidity 77    
Minimum Humidity 13    
Precipitation  
Precipitation 0.00 in - - ()
Sea Level Pressure  
Sea Level Pressure 29.91 in    
Wind  
Wind Speed 3 mph (West)    
Max Wind Speed 10 mph    
Max Gust Speed -    
Visibility 10 miles    
Events      
Averages and records for this station are not official NWS values.
T = Trace of Precipitation, MM = Missing Value Source: NWS Daily Summary

Daily Weather History Graph

Daily Weather History Graph

Search for Another Location

Airport or City:

Astronomy

Aug. 30, 2019 Rise Set
Actual Time 5:49 AM MST 6:46 PM MST
Civil Twilight 5:23 AM MST 7:12 PM MST
Nautical Twilight 4:52 AM MST 7:42 PM MST
Astronomical Twilight 4:21 AM MST 8:14 PM MST
Moon 5:56 AM MST (8/30) 7:25 PM MST (8/30)
Length of Visible Light 13h 49m
Length of Day
12h 57m
New Moon, 0% of the Moon is Illuminated
Aug 30
New Moon
Sep 5
First Quarter
Sep 13
Full
Sep 21
Last Quarter
Sep 28
New

Hourly Weather History & Observations

Time (MST) Temp. Dew Point Humidity Pressure Visibility Wind Dir Wind Speed Gust Speed Precip Events Conditions
12:54 AM 66.9 °F 50.0 °F 54% 29.92 in 10.0 mi ENE 3.5 mph - N/A   Clear
1:54 AM 61.0 °F 51.1 °F 70% 29.92 in 10.0 mi South 3.5 mph - N/A   Clear
2:54 AM 63.0 °F 50.0 °F 63% 29.91 in 10.0 mi SW 4.6 mph - N/A   Clear
3:54 AM 62.1 °F 50.0 °F 65% 29.92 in 10.0 mi Calm Calm - N/A   Clear
4:54 AM 57.0 °F 50.0 °F 77% 29.95 in 10.0 mi Calm Calm - N/A   Clear
5:54 AM 57.0 °F 50.0 °F 77% 29.98 in 10.0 mi Calm Calm - N/A   Clear
6:54 AM 63.0 °F 50.0 °F 63% 29.99 in 10.0 mi SE 3.5 mph - N/A   Clear
7:54 AM 71.1 °F 50.0 °F 47% 29.98 in 10.0 mi Calm Calm - N/A   Clear
8:54 AM 77.0 °F 48.0 °F 36% 29.97 in 10.0 mi Calm Calm - N/A   Clear
9:54 AM 80.1 °F 48.0 °F 32% 29.95 in 10.0 mi Calm Calm - N/A   Clear
10:54 AM 84.0 °F 46.0 °F 26% 29.93 in 10.0 mi Variable 4.6 mph - N/A   Clear
11:54 AM 88.0 °F 42.1 °F 20% 29.91 in 10.0 mi Calm Calm - N/A   Clear
12:54 PM 91.0 °F 41.0 °F 17% 29.88 in 10.0 mi East 9.2 mph - N/A   Clear
1:54 PM 91.0 °F 37.9 °F 15% 29.87 in 10.0 mi Variable 4.6 mph - N/A   Clear
2:54 PM 93.0 °F 37.9 °F 15% 29.83 in 10.0 mi WNW 10.4 mph - N/A   Scattered Clouds
3:54 PM 93.0 °F 37.9 °F 15% 29.80 in 10.0 mi NNW 9.2 mph - N/A   Clear
4:54 PM 93.0 °F 36.0 °F 13% 29.81 in 10.0 mi WNW 5.8 mph - N/A   Partly Cloudy
5:54 PM 91.0 °F 33.1 °F 13% 29.81 in 10.0 mi NW 6.9 mph - N/A   Clear
6:54 PM 84.9 °F 32.0 °F 15% 29.83 in 10.0 mi NW 6.9 mph - N/A   Clear
7:54 PM 75.9 °F 37.9 °F 25% 29.85 in 10.0 mi West 8.1 mph - N/A   Clear
8:54 PM 77.0 °F 39.9 °F 26% 29.86 in 10.0 mi West 6.9 mph - N/A   Clear
9:54 PM 75.0 °F 41.0 °F 29% 29.86 in 10.0 mi Calm Calm - N/A   Clear
10:54 PM 73.0 °F 46.0 °F 38% 29.86 in 10.0 mi ESE 4.6 mph - N/A   Clear
11:54 PM 75.0 °F 46.0 °F 36% 29.85 in 10.0 mi SSW 4.6 mph - N/A   Clear